Terug naar catalogus

STARLINK-31317

ActiefCommunicatieVLEO
NORAD 58931·PAYLOAD·🇺🇸 United States

Gelanceerd Feb 10, 2024 vanaf Vandenberg Space Force Base

Loading…

Volgende Passages (komende 24 uur)

TLE

VersSource: CelesTrak SupGP

Epoch: Sep 15, 2026, 02:31 UTC

1 58931C 24027A   26258.10534722  .00010979  00000+0  32440-3 0  2587
2 58931  53.1564 146.7409 0001274  80.4145 221.1350 15.34381867    10

Volg STARLINK-31317 in realtime met AllMySat

Download on the App Store